Powrót do katalogu

NOAA 16 DEB

AktywnySSO
NORAD 41422·DEBRIS·🇺🇸 United States

Wystrzelony Sep 21, 2000 z Vandenberg Space Force Base

Loading…

Następne Przeloty (najbliższe 24 godziny)

TLE

ŚwieżeSource: Space-Track

Epoka: Sep 14, 2026, 10:32 UTC

1 41422U 00055LB  26257.43931892  .00002193  00000-0  89927-3 0  9997
2 41422  98.7045 334.9128 0012598 274.5865  85.3877 14.28092394546959

Śledź NOAA 16 DEB w czasie rzeczywistym z AllMySat

Download on the App Store